Location: Proctor
(47.8934°N, 114.3048°W)
Time: 18:27:02
(UTC+00:00)

Transit 4A - Pass Details

Date: 14 May 2025
Orbit: 866 x 975 km, 66.8° (Epoch: 13 June)

Event Time Altitude Azimuth Distance (km) Brightness Sun altitude
Rises 03:33:58 0° 209° (SSW) 3,659 11.0 -4.6°
Reaches altitude 10° 03:36:31 10° 209° (SSW) 2,713 10.3 -5.0°
Maximum altitude 03:42:53 83° 123° (ESE) 978 8.0 -5.9°
Drops below altitude 10° 03:49:11 10° 36° (NE) 2,684 10.4 -6.7°
Sets 03:51:43 0° 36° (NE) 3,618 11.0 -7.0°
